Location: Clanezzo
(45.7500°N, 9.6000°E)
Time: 04:15:02
(UTC+00:00)

Okean 1-7 - Pass Details

Date: 12 May 2021
Orbit: 592 x 617 km, 82.5° (Epoch: 18 June)

Event Time Altitude Azimuth Distance (km) Brightness Sun altitude
Exits shadow 22:43:29 55° 50° (NE) 724 3.4 -25.4°
Drops below altitude 10° 22:47:03 10° 15° (NNE) 1,945 6.5 -25.5°
Sets 22:49:18 0° 12° (NNE) 2,856 7.6 -25.5°
